Location: Unspecified
(0.0000°N, 0.0000°E)
Time: 03:05:13
(UTC+00:00)

NUDT-PHONESAT - Pass Details

Date: 12 December 2017
Orbit: 494 x 511 km, 97.4° (Epoch: 26 April)

Event Time Altitude Azimuth Distance (km) Brightness Sun altitude
Rises 05:24:34 0° 31° (NNE) 2,612 ? -6.7°
Reaches altitude 10° 05:26:55 10° 45° (NE) 1,727 ? -6.2°
Maximum altitude 05:30:00 25° 101° (E) 1,068 ? -5.4°
Drops below altitude 10° 05:33:05 10° 157° (SSE) 1,727 ? -4.7°
Sets 05:35:25 0° 171° (S) 2,611 ? -4.2°
